Вернуться в каталог

STARLINK-36293

АктивенСвязьVLEO
NORAD 68515·PAYLOAD·🇺🇸 United States

Запущен Mar 30, 2026 с Cape Canaveral Space Force Station

Loading…

Ближайшие Пролёты (ближайшие 24 часа)

TLE

СвежийSource: CelesTrak SupGP

Эпоха: Sep 15, 2026, 03:15 UTC

1 68515C 26068H   26258.13590278  .00054634  00000+0  16143-2 0  2581
2 68515  53.1578 324.9520 0001207  93.4685 186.5394 15.34360275    19

Отслеживайте STARLINK-36293 в реальном времени с AllMySat

Download on the App Store